Regional Weather Roundup
Issued by NWS

Home | Current Version | Previous Version | Graphics & Text | Print | Product List | Glossary On
Versions: 1 2 3 4 5 6 7 8 9 10 11 12 13 14 15 16 17 18 19 20 21 22 23 24 25 26 27 28 29 30 31 32 33 34 35 36 37 38 39 40 41 42 43 44 45 46 47 48 49 50
000
ASUS43 KLOT 240908
RWRIL

ILLINOIS REGIONAL WEATHER ROUNDUP
NATIONAL WEATHER SERVICE CHICAGO/ROMEOVILLE IL
400 AM CDT WED AUG 24 2016

NOTE: "FAIR" INDICATES FEW OR NO CLOUDS BELOW 12,000 FEET WITH NO
SIGNIFICANT WEATHER AND/OR OBSTRUCTIONS TO VISIBILITY.

* THESE STATIONS ARE NOT UNDER NWS QUALITY CONTROL. THEY ALSO MAY NOT
  REPORT WEATHER SUCH AS PRECIPITATION OR FOG.

ILZ001-002-007-009-015-016-024-241000-
NORTHWEST ILLINOIS

CITY           SKY/WX    TMP DP  RH WIND       PRES   REMARKS
MOLINE         TSTM      72  70  93 S10       29.94F FOG
STERLING*      CLOUDY    72  69  90 VRB6      29.98F
SAVANNA*       DRIZZLE   70  69  96 S10       29.95F
$$

ILZ003-004-008-010-011-017-018-241000-
NORTH CENTRAL ILLINOIS

CITY           SKY/WX    TMP DP  RH WIND       PRES   REMARKS
ROCKFORD       CLOUDY    70  66  87 S12       29.99F
FREEPORT*      CLOUDY    69  67  93 S13G21    29.98F
ROCHELLE*      CLOUDY    68  67  94 S9        30.00F
DE KALB*       CLOUDY    69  67  93 S15       30.02F
$$

ILZ005-006-012>014-019>023-241000-
NORTHEAST ILLINOIS

CITY           SKY/WX    TMP DP  RH WIND       PRES   REMARKS
CHICAGO-OHARE  CLOUDY    72  64  76 S14       30.03F
CHICAGO-MIDWAY CLOUDY    74  63  68 S12       30.04F
AURORA         CLOUDY    69  66  90 S14       30.02F
LANSING*       MOCLDY    70  62  75 S12       30.06F
JOLIET*        LGT RAIN  70  68  93 SE8       30.04F
WAUKEGAN       CLOUDY    73  65  75 S13       30.00F
DUPAGE AIRPORT CLOUDY    72  64  76 S18G25    30.02F
KANKAKEE*      MOCLDY    69  64  81 S10       30.07F
WHEELING       MOCLDY    73  65  75 S13       30.03F
MORRIS*        PTCLDY    67  66  94 SE6       30.02F
ROMEOVILLE*    LGT RAIN  68  64  85 S9        30.04F
NORTHERLY ISL    N/A     73  62  68 S12         N/A
$$

LMZ740>746-241000-
SOUTHERN LAKE MICHIGAN

STATION/POSITION SKY/WX   TEMP    WIND        PRES    VSBY  WAVE
                          AIR SEA DIR/SP/G                  HT/PER
                          (F)     (DEG/KT/KT) (MB)    (MI)  (FT/S)
SOUTHERN BUOY              74 75  170/ 23/ 27 1015.8F         5/ 5
WILMETTE HARBOR            73 71  220/ 14/ 19   N/A           2/ 4
HARRISON CRIB              73     190/ 18/ 19   N/A
BURNHAM HARBOR             73     190/ 15/ 18   N/A
CALUMET HARBOR             72     180/  9/ 16 1017.6F
BURNS HARBOR               71     190/ 10/ 16 1019.0F
MICHIGAN CITY              70     160/ 13/ 17   N/A
MICHIGAN CITY 6N           71 73  180/ 12/ 14   N/A           1/ 2
ST. JOSEPH                 72 75  160/ 14/ 17 1018.2F         2/ 3
$$

ILZ025>027-034>036-040-047-049-050-058-095>099-241000-
WEST-CENTRAL ILLINOIS

CITY           SKY/WX    TMP DP  RH WIND       PRES   REMARKS
QUINCY         CLOUDY    75  74  96 S13       29.97F
GALESBURG*     TSTM      71  70  97 S10       29.98F
MACOMB*        CLOUDY    72  71  96 S9        29.99F
JACKSONVILLE*  CLOUDY    74  72  93 S10G16    30.02F
PITTSFIELD*    CLOUDY    74  73  95 S8        30.01F
$$

ILZ028>032-037-038-041>044-048-051>054-059>061-241000-
CENTRAL ILLINOIS

CITY           SKY/WX    TMP DP  RH WIND       PRES   REMARKS
PONTIAC        CLOUDY    71  69  94 S8        30.05F
BLOOMINGTON    CLOUDY    70  68  93 S14       30.06F
DECATUR        CLOUDY    73  69  87 S13       30.07F
PEORIA         CLOUDY    72  71  97 S10       30.01F
LACON*         CLOUDY    71  68  90 S9G17     30.00F
LINCOLN*       CLOUDY    73  71  96 S8        30.04F
SPRINGFIELD    CLOUDY    74  71  91 S13       30.03F
TAYLORVILLE    MOCLDY    72  71  96 S12G20    30.07F
$$

ILZ033-039-045-046-055>057-062-063-241000-
EAST-CENTRAL ILLINOIS

CITY           SKY/WX    TMP DP  RH WIND       PRES   REMARKS
CHAMPAIGN      MOCLDY    70  66  87 S10       30.09F
RANTOUL*       MOCLDY    70  67  90 S6        30.09F
MATTOON        CLOUDY    69  66  90 S7        30.10S
PARIS*         CLOUDY    69  66  91 CALM      30.12S
$$

ILZ079-100>102-241000-
SOUTHWEST ILLINOIS

CITY           SKY/WX    TMP DP  RH WIND       PRES   REMARKS
ALTON          CLOUDY    73  72  96 S7        30.06F
BELLEVILLE     CLOUDY    74  74 100 S5        30.07S
CAHOKIA*       CLOUDY    75  72  90 S6        30.05F
SPARTA*        CLOUDY    73  73  97 S9        30.11S
$$

ILZ064>066-069>071-074>076-080>082-084>086-088>090-092>094-241000-
SOUTH-CENTRAL ILLINOIS

CITY           SKY/WX    TMP DP  RH WIND       PRES   REMARKS
CARBONDALE     CLOUDY    74  71  91 S9        30.12S
CAIRO*         CLOUDY    74  73  96 S7        30.13R
EFFINGHAM*     CLOUDY    72  72 100 SE5       30.12F
MARION         CLOUDY    75  73  94 S7        30.14R
MT. VERNON     MOCLDY    73  66  78 S5        30.13S
CENTRALIA*     CLOUDY    74  73  96 S9        30.10S
SALEM*         MOCLDY    74  71  92 S6        30.11S
$$

ILZ067-068-072-073-078-083-087-091-241000-
SOUTHEAST ILLINOIS

CITY           SKY/WX    TMP DP  RH WIND       PRES   REMARKS
LAWRENCEVILLE  PTCLDY    70  67  90 S6        30.14S
FLORA*         MOCLDY    72  71  96 S6        30.12S
FAIRFIELD*     CLOUDY    73  72  97 CALM      30.13R
HARRISBURG*    MOCLDY    71  71  98 S3        30.13S
ROBINSON*      CLOUDY    69  66  92 S6        30.14S
CARMI*         PTCLDY    70  70 100 CALM      30.13S FOG
$$

ABBREVIATIONS USED IN REMARKS
   TC - TEMPERATURE IN CELSIUS
  WCI - WIND CHILL INDEX
   HX - HEAT INDEX
  VSB - VISIBILITY
$$





USA.gov is the U.S. government's official web portal to all federal, state and local government web resources and services.